GW4275 Weather Reports


time (UTC)temp
F
wind
direction
speed
knots
gust
knots
rain 1hr
in
rain 24hr
in
rain mn
in
humidity
%
barometer
mb
20260507061002 43 288 0.0 1.7 0.00 0.22 0.00 89 1013.4
20260507060502 43 275 0.0 1.7 0.00 0.22 0.00 89 1013.4
20260507055503 43 269 0.0 1.7 0.00 0.22 0.00 90 1013.4
20260507055003 43 265 0.0 1.7 0.00 0.22 0.00 90 1013.3
20260507054007 43 269 0.0 1.7 0.00 0.22 0.00 90 1013.2
20260507053504 44 279 0.0 1.7 0.00 0.22 0.00 90 1013.2
20260507052505 44 229 0.0 1.7 0.00 0.22 0.00 90 1013.3
20260507052006 44 11 0.0 1.7 0.00 0.22 0.00 91 1013.6
20260507051520 44 305 0.0 1.7 0.00 0.22 0.00 91 1013.6
20260507051006 44 333 0.0 1.7 0.00 0.22 0.00 91 1013.5
20260507050506 44 284 0.0 1.7 0.00 0.22 0.00 91 1013.5
20260507045505 44 288 0.0 1.7 0.00 0.22 0.00 91 1013.4
20260507045003 44 264 0.0 1.7 0.00 0.22 0.00 91 1013.3
20260507044003 44 299 0.0 1.7 0.00 0.22 0.00 91 1013.4
20260507043501 44 312 0.0 1.7 0.00 0.22 0.00 91 1013.3
20260507043013 44 254 0.0 1.7 0.00 0.22 0.00 91 1013.4
20260507042503 45 5 0.0 1.7 0.00 0.22 0.00 91 1013.3
20260507042007 45 352 0.9 1.7 0.00 0.22 0.00 91 1013.3
20260507041007 45 280 0.0 1.7 0.00 0.22 0.00 92 1013.0
20260507040506 45 236 0.0 1.7 0.00 0.22 0.00 92 1012.9
20260507035506 45 257 0.0 1.7 0.00 0.22 0.22 92 1012.7
20260507035012 45 311 0.0 1.7 0.00 0.22 0.22 92 1012.5
20260507034003 45 321 0.0 1.7 0.00 0.22 0.22 92 1012.4
20260507033504 45 338 0.0 1.7 0.00 0.22 0.22 92 1012.4
20260507032504 45 338 0.0 1.7 0.00 0.22 0.22 92 1012.5
20260507032005 45 42 0.0 1.7 0.00 0.22 0.22 92 1012.6
20260507031006 45 186 0.0 1.7 0.00 0.22 0.22 92 1012.7
20260507030507 45 184 0.0 1.7 0.00 0.22 0.22 92 1012.7
20260507025508 45 207 0.0 1.7 0.00 0.22 0.22 92 1012.5
20260507025005 45 210 0.0 1.7 0.00 0.22 0.22 92 1012.3
20260507024009 45 275 0.0 1.7 0.00 0.22 0.22 92 1012.4
20260507023506 45 275 0.0 1.7 0.00 0.22 0.22 92 1012.7
20260507023022 45 275 0.0 1.7 0.00 0.22 0.22 91 1012.6
20260507022503 45 275 0.0 1.7 0.00 0.22 0.22 91 1012.4
20260507022003 45 275 0.0 1.7 0.00 0.22 0.22 91 1012.3
20260507021511 45 275 0.0 1.7 0.00 0.22 0.22 91 1012.4
20260507021005 45 292 0.0 0.0 0.00 0.22 0.22 91 1012.6
20260507020506 45 292 0.0 0.9 0.00 0.22 0.22 91 1012.6
20260507015506 45 292 0.0 1.7 0.00 0.22 0.22 91 1012.6
20260507015006 45 292 0.0 0.0 0.00 0.22 0.22 91 1012.6
20260507014006 45 292 0.0 0.0 0.00 0.22 0.22 91 1012.8
20260507013508 45 292 0.0 0.0 0.00 0.22 0.22 91 1012.9
20260507012513 45 292 0.0 0.0 0.00 0.22 0.22 91 1013.0
20260507012011 45 292 0.0 0.0 0.00 0.22 0.22 91 1012.7
20260507011535 45 292 0.0 0.0 0.00 0.22 0.22 91 1012.6
20260507011003 45 292 0.0 0.0 0.00 0.22 0.22 91 1012.6
20260507010502 45 292 0.0 0.0 0.00 0.22 0.22 91 1012.7
20260507010012 45 292 0.0 0.0 0.00 0.22 0.22 91 1012.6
20260507005504 45 292 0.0 1.7 0.00 0.22 0.22 91 1012.7
20260507005006 45 292 0.0 1.7 0.00 0.22 0.22 91 1012.5
20260507004520 45 292 0.0 1.7 0.00 0.22 0.22 91 1012.4
20260507004006 45 292 0.0 0.0 0.00 0.22 0.22 91 1012.5
20260507003507 45 292 0.0 0.0 0.00 0.22 0.22 91 1012.3
20260507003022 45 292 0.0 0.9 0.00 0.22 0.22 91 1012.3
20260507002506 45 292 0.0 0.0 0.00 0.22 0.22 91 1012.2
20260507002010 45 292 0.0 0.9 0.00 0.22 0.22 91 1012.1
20260507001525 45 292 0.0 0.9 0.00 0.22 0.22 91 1012.2
20260507001010 45 292 0.0 0.0 0.00 0.22 0.22 91 1012.2
20260507000513 45 292 0.0 0.0 0.00 0.22 0.22 91 1012.1
20260507000029 45 292 0.0 0.0 0.00 0.22 0.22 91 1012.1
20260506235502 45 292 0.0 0.0 0.00 0.22 0.22 91 1012.0
20260506235006 45 292 0.0 0.0 0.00 0.22 0.22 91 1012.0
20260506234515 45 292 0.0 0.0 0.00 0.22 0.22 91 1012.0
20260506234005 45 292 0.0 0.0 0.00 0.22 0.22 91 1012.1
20260506233506 45 292 0.0 0.0 0.00 0.22 0.22 91 1012.0
20260506233023 45 292 0.0 0.0 0.00 0.23 0.22 91 1011.9
20260506232505 45 292 0.0 0.0 0.00 0.23 0.22 91 1011.8
20260506232010 46 292 0.0 0.0 0.00 0.23 0.22 91 1011.7
20260506231524 46 292 0.0 0.0 0.00 0.23 0.22 91 1011.7
20260506231010 46 292 0.0 0.0 0.00 0.24 0.22 92 1011.7
20260506230506 46 292 0.0 0.9 0.00 0.24 0.22 92 1011.5
20260506230027 46 292 0.0 1.7 0.00 0.27 0.22 92 1011.6
20260506225514 46 292 0.0 1.7 0.00 0.28 0.22 92 1011.6
20260506225010 46 292 0.0 0.0 0.00 0.37 0.22 92 1011.5
20260506224525 46 292 0.0 0.0 0.00 0.38 0.22 92 1011.4
20260506224010 46 292 0.0 0.0 0.00 0.38 0.22 92 1011.3
20260506223505 46 292 0.0 0.9 0.00 0.40 0.22 92 1011.4
20260506223013 46 292 0.0 0.9 0.00 0.40 0.22 92 1011.3
20260506222504 46 292 0.0 1.7 0.00 0.40 0.22 92 1011.3
20260506222005 46 292 0.0 1.7 0.01 0.40 0.22 92 1011.3
20260506221520 46 292 0.0 1.7 0.01 0.40 0.22 92 1011.5
20260506221009 46 268 0.0 1.7 0.01 0.40 0.22 92 1011.5
20260506220507 46 268 0.0 1.7 0.01 0.40 0.22 92 1011.6
20260506220023 46 303 0.0 1.7 0.01 0.40 0.22 92 1011.7
20260506215512 46 341 0.0 1.7 0.01 0.40 0.22 92 1011.6
20260506215008 46 349 0.0 1.7 0.01 0.40 0.22 92 1011.3
20260506214524 46 302 0.0 1.7 0.01 0.40 0.22 92 1011.3
20260506214011 46 333 0.0 1.7 0.01 0.40 0.22 92 1011.4
20260506213511 46 326 0.0 1.7 0.01 0.40 0.22 92 1011.4
20260506213027 46 328 0.0 1.7 0.01 0.40 0.22 92 1011.5
20260506212509 46 319 0.0 1.7 0.01 0.40 0.22 92 1011.3
20260506212005 46 265 0.0 1.7 0.00 0.39 0.21 92 1011.3
20260506211518 46 269 0.0 1.7 0.00 0.39 0.21 93 1011.3
20260506211005 46 112 0.0 1.7 0.00 0.39 0.21 93 1011.3
20260506210503 46 284 0.0 1.7 0.00 0.39 0.21 93 1011.3
20260506210006 46 278 0.0 1.7 0.00 0.39 0.21 93 1011.2
20260506205503 46 186 0.0 1.7 0.00 0.39 0.21 93 1011.2
20260506205003 46 247 0.0 1.7 0.00 0.39 0.21 93 1011.1
20260506204507 46 269 0.0 1.7 0.00 0.39 0.21 93 1010.9
20260506204003 46 268 0.0 1.7 0.00 0.39 0.21 93 1010.8
20260506203504 46 317 0.0 1.7 0.00 0.39 0.21 93 1010.8
20260506203010 46 34 0.0 1.7 0.00 0.39 0.21 93 1010.6
20260506202506 46 243 0.0 1.7 0.00 0.39 0.21 93 1010.6
20260506202013 45 267 0.0 1.7 0.00 0.39 0.21 93 1010.6
20260506201503 45 320 0.0 1.7 0.00 0.39 0.21 93 1010.6
20260506201002 45 257 0.0 1.7 0.00 0.39 0.21 93 1010.6
20260506200502 45 292 0.0 1.7 0.00 0.39 0.21 93 1010.4
20260506200004 45 285 0.0 1.7 0.00 0.39 0.21 93 1010.6
20260506195503 45 289 0.0 1.7 0.00 0.39 0.21 93 1010.5
20260506195003 45 281 0.0 1.7 0.00 0.39 0.21 93 1010.4
20260506194508 45 215 0.0 1.7 0.01 0.39 0.21 93 1010.2
20260506194003 45 319 0.0 1.7 0.01 0.39 0.21 93 1010.1
20260506193504 45 261 0.0 1.7 0.01 0.39 0.21 93 1010.2
20260506193008 45 292 0.0 1.7 0.01 0.39 0.21 93 1010.3
20260506192504 45 320 0.0 1.7 0.01 0.39 0.21 93 1010.2
20260506192007 45 284 0.0 1.7 0.01 0.39 0.21 93 1010.1
20260506191514 45 293 0.0 1.7 0.01 0.39 0.21 93 1010.0
20260506191006 45 5 0.0 1.7 0.01 0.39 0.21 93 1010.0
20260506190507 45 352 0.0 1.7 0.01 0.39 0.21 93 1010.1
20260506190004 45 234 0.0 1.7 0.01 0.39 0.21 93 1010.1
20260506185502 45 303 0.0 1.7 0.01 0.39 0.21 93 1010.0
20260506185002 45 267 0.0 1.7 0.01 0.39 0.21 93 1010.0
20260506184504 45 9 0.0 1.7 0.00 0.38 0.20 93 1010.0
20260506184003 45 286 0.0 1.7 0.00 0.38 0.20 93 1010.0
20260506183503 45 227 0.0 1.7 0.01 0.38 0.20 93 1009.9
20260506183007 45 267 0.0 1.7 0.01 0.39 0.20 93 1009.8
20260506182503 45 271 0.0 1.7 0.01 0.40 0.20 93 1009.7
20260506182005 45 14 0.0 1.7 0.01 0.40 0.20 93 1009.7
20260506181513 45 331 0.0 1.7 0.01 0.40 0.20 93 1009.6
20260506181007 45 281 0.9 1.7 0.02 0.40 0.20 93 1009.5
20260506180510 45 304 0.0 1.7 0.02 0.40 0.20 93 1009.5
20260506180025 45 274 0.0 1.7 0.02 0.40 0.20 93 1009.4
20260506175507 45 237 0.0 1.7 0.02 0.40 0.20 93 1009.4
20260506175006 45 245 0.0 1.7 0.02 0.40 0.20 93 1009.2
20260506174505 45 325 0.0 1.7 0.02 0.40 0.20 93 1009.1
20260506174002 45 89 0.0 1.7 0.02 0.40 0.20 92 1009.0
20260506173503 45 240 0.0 1.7 0.01 0.39 0.19 92 1008.9
20260506173005 45 252 0.0 1.7 0.01 0.39 0.19 92 1008.9
20260506172503 45 48 0.0 1.7 0.01 0.39 0.19 92 1008.9
20260506172003 45 268 0.0 1.7 0.02 0.39 0.19 92 1008.9
20260506171508 45 290 0.0 1.7 0.02 0.39 0.19 92 1008.9
20260506171007 45 293 0.0 1.7 0.01 0.38 0.18 92 1008.9
20260506170506 45 292 0.0 1.7 0.01 0.38 0.18 92 1008.9
20260506170012 45 248 0.0 1.7 0.01 0.38 0.18 92 1008.9
20260506165506 45 286 0.0 1.7 0.01 0.38 0.18 92 1008.9
20260506165006 45 292 0.0 1.7 0.01 0.38 0.18 92 1008.9
20260506164521 45 236 0.0 1.7 0.01 0.38 0.18 92 1008.8
20260506164007 45 304 0.0 1.7 0.01 0.38 0.18 92 1008.8
20260506163508 45 305 0.0 1.7 0.01 0.38 0.18 92 1008.8
20260506163025 44 10 0.0 1.7 0.02 0.38 0.18 92 1008.9
20260506162503 44 9 0.0 1.7 0.03 0.38 0.18 92 1008.9
20260506162007 45 272 0.9 1.7 0.02 0.37 0.17 92 1008.9
20260506161507 45 292 0.0 1.7 0.03 0.37 0.17 92 1008.8
20260506161004 45 290 0.0 1.7 0.03 0.37 0.17 92 1008.8
20260506160505 45 298 0.0 1.7 0.03 0.37 0.17 92 1008.7
20260506160015 45 277 0.0 1.7 0.04 0.37 0.17 92 1008.8
20260506155506 45 329 0.0 1.7 0.04 0.37 0.17 92 1008.7
20260506155003 45 350 0.0 1.7 0.04 0.37 0.17 92 1008.7
20260506154517 45 348 0.0 1.7 0.05 0.37 0.17 92 1008.8
20260506154007 45 24 0.0 1.7 0.05 0.37 0.17 92 1008.8
20260506153506 45 71 0.0 1.7 0.06 0.37 0.17 92 1008.8
20260506153020 45 271 0.0 1.7 0.05 0.36 0.16 92 1008.9
20260506152506 45 45 0.0 1.7 0.04 0.35 0.15 92 1008.9
20260506152009 45 313 0.0 1.7 0.04 0.35 0.15 92 1008.9
20260506151525 45 325 0.0 1.7 0.03 0.34 0.14 92 1008.8
20260506151004 45 275 0.0 1.7 0.04 0.34 0.14 91 1008.9
20260506150503 45 279 0.0 1.7 0.04 0.34 0.14 91 1008.7
20260506150009 45 290 0.0 1.7 0.03 0.33 0.13 91 1008.6
20260506145504 45 284 0.0 1.7 0.03 0.33 0.13 91 1008.6
20260506145004 45 280 0.0 1.7 0.03 0.33 0.13 91 1008.6
20260506144511 45 273 0.0 1.7 0.03 0.32 0.12 91 1008.6
20260506144005 45 89 0.0 1.7 0.03 0.32 0.12 91 1008.6
20260506143506 45 136 0.0 1.7 0.02 0.31 0.11 91 1008.5
20260506143018 45 343 0.0 1.7 0.02 0.31 0.11 91 1008.6
20260506142505 45 330 0.0 1.7 0.03 0.31 0.11 91 1008.5
20260506142010 45 284 0.0 1.7 0.03 0.31 0.11 91 1008.4
20260506141519 45 5 0.0 1.7 0.04 0.31 0.11 91 1008.3
20260506141008 45 5 0.0 1.7 0.03 0.30 0.10 91 1008.4
20260506140510 45 5 0.0 1.7 0.04 0.30 0.10 91 1008.5
20260506140022 45 13 0.0 1.7 0.04 0.30 0.10 91 1008.5
20260506135503 45 341 0.0 1.7 0.05 0.30 0.10 91 1008.5
20260506135006 45 238 0.0 1.7 0.06 0.30 0.10 91 1008.5
20260506134519 45 295 0.0 1.7 0.06 0.29 0.09 91 1008.6
20260506134004 45 254 0.0 1.7 0.07 0.29 0.09 91 1008.5
20260506133504 45 252 0.0 1.7 0.08 0.29 0.09 91 1008.6
20260506133012 45 298 0.0 1.7 0.09 0.29 0.09 91 1008.6
20260506132506 46 284 0.0 1.7 0.08 0.28 0.08 91 1008.6
20260506132007 46 254 0.0 1.7 0.08 0.28 0.08 91 1008.7
20260506131521 46 334 0.0 1.7 0.07 0.27 0.07 91 1008.7
20260506131007 46 267 0.0 1.7 0.07 0.27 0.07 91 1008.7
20260506130509 46 254 0.0 1.7 0.06 0.26 0.06 91 1008.7
20260506130022 46 281 0.0 1.7 0.06 0.26 0.06 91 1008.6
20260506125509 46 280 0.0 1.7 0.05 0.25 0.05 91 1008.6
20260506125008 46 280 0.0 1.7 0.04 0.24 0.04 91 1008.6
20260506124525 46 276 0.0 1.7 0.03 0.23 0.03 91 1008.6
20260506124010 46 338 0.0 1.7 0.02 0.22 0.02 91 1008.6
20260506123504 46 331 0.0 1.7 0.01 0.21 0.01 91 1008.6
20260506123011 46 328 0.0 1.7 0.00 0.20 0.00 91 1008.5
20260506122508 46 329 0.0 0.0 0.00 0.20 0.00 91 1008.3
20260506122012 0 0.0 0.0 0.00 0.20 0.00 1008.2
20260506121531 0 0.0 0.0 0.00 0.20 0.00 1008.2
20260506121010 0 0.0 0.0 0.00 0.20 0.00 1008.2
20260506120503 0 0.0 0.0 0.00 0.20 0.00 1008.1
20260506120009 0 0.0 0.0 0.00 0.20 0.00 1008.1
20260506115503 0 0.0 0.0 0.00 0.20 0.00 1008.1
20260506115003 0 0.0 0.0 0.00 0.20 0.00 1008.2
20260506114504 0 0.0 0.0 0.00 0.20 0.00 1008.3
20260506114002 0 0.0 0.0 0.00 0.20 0.00 1008.2
20260506113502 0 0.0 0.0 0.00 0.20 0.00 1008.1
20260506113005 0 0.0 0.0 0.00 0.20 0.00 1008.2
20260506112503 0 0.0 0.0 0.00 0.20 0.00 1008.2
20260506112004 0 0.0 0.0 0.00 0.20 0.00 1008.1
20260506111002 0 0.0 0.0 0.00 0.20 0.00 1008.2
20260506110502 0 0.0 0.0 0.00 0.20 0.00 1008.1
20260506110009 0 0.0 0.0 0.00 0.20 0.00 1008.2
20260506105503 0 0.0 0.0 0.00 0.20 0.00 1008.0
20260506105003 0 0.0 0.0 0.00 0.20 0.00 1008.1
20260506104503 0 0.0 0.0 0.00 0.20 0.00 1008.1
20260506104002 0 0.0 0.0 0.00 0.20 0.00 1008.1
20260506103502 0 0.0 0.0 0.00 0.20 0.00 1007.9
20260506103017 0 0.0 0.0 0.00 0.20 0.00 1007.8
20260506102503 0 0.0 0.0 0.00 0.20 0.00 1007.8
20260506102003 0 0.0 0.0 0.00 0.20 0.00 1008.5
20260506101504 0 0.0 0.0 0.00 0.20 0.00 1008.1
20260506101002 0 0.0 0.0 0.00 0.20 0.00 1008.2
20260506100503 0 0.0 0.0 0.00 0.20 0.00 1008.2
20260506100004 0 0.0 0.0 0.00 0.20 0.00 1008.2
20260506095502 0 0.0 0.0 0.00 0.20 0.00 1008.3
20260506095002 0 0.0 0.0 0.00 0.20 0.00 1008.2
20260506094504 0 0.0 0.0 0.00 0.20 0.00 1008.3
20260506094004 0 0.0 0.0 0.00 0.20 0.00 1007.9
20260506093503 0 0.0 0.0 0.00 0.20 0.00 1008.2
20260506093005 0 0.0 0.0 0.00 0.20 0.00 1008.4
20260506092503 0 0.0 0.0 0.00 0.20 0.00 1008.5
20260506092003 0 0.0 0.0 0.00 0.20 0.00 1008.7
20260506091506 0 0.0 0.0 0.00 0.20 0.00 1008.9
20260506091003 0 0.0 0.0 0.00 0.20 0.00 1009.0
20260506090502 0 0.0 0.0 0.00 0.20 0.00 1009.0
20260506090007 0 0.0 0.0 0.00 0.20 0.00 1009.1
20260506085503 0 0.0 0.0 0.00 0.20 0.00 1009.0
20260506085003 0 0.0 0.0 0.00 0.20 0.00 1009.0
20260506084506 0 0.0 0.0 0.00 0.20 0.00 1009.1
20260506084003 0 0.0 0.0 0.00 0.20 0.00 1009.1
20260506083504 0 0.0 0.0 0.00 0.20 0.00 1009.0
20260506083006 0 0.0 0.0 0.00 0.20 0.00 1008.9
20260506082501 0 0.0 0.0 0.00 0.20 0.00 1008.8
20260506082002 0 0.0 0.0 0.00 0.20 0.00 1008.6
20260506081506 0 0.0 0.0 0.00 0.20 0.00 1008.5
20260506081003 0 0.0 0.0 0.00 0.20 0.00 1008.7
20260506080504 0 0.0 0.0 0.00 0.20 0.00 1008.6
20260506073506 0 0.0 0.0 0.00 0.20 0.00 1008.5
20260506073012 0 0.0 0.0 0.00 0.20 0.00 1008.5
20260506072502 0 0.0 0.0 0.00 0.20 0.00 1008.8
20260506072003 0 0.0 0.0 0.00 0.20 0.00 1008.7
20260506071513 0 0.0 0.0 0.00 0.20 0.00 1008.7
20260506071002 0 0.0 0.0 0.00 0.20 0.00 1009.0
20260506070502 0 0.0 0.0 0.00 0.20 0.00 1008.9
20260506062505 0 0.0 0.0 0.00 0.20 0.00 1009.7
20260506062004 0 0.0 0.0 0.00 0.20 0.00 1009.8
20260506061512 0 302 0.0 0.0 0.00 0.20 0.00 1010.0
20260506061009 48 302 0.0 0.0 0.00 0.20 0.00 90 1009.9